Flag for Germany Weather past 2 weeks in Emsdetten, North Rhine-Westphalia, Germany

Now
59 °F

Clear.


Feels Like: 59 °F
Forecast: 51 / 69 °F
Wind: 1 mph from Northeast

Location: Muenster / Osnabrueck

Current Time: Sep 2, 2014 at 12:02:11 AM

Latest Report: Sep 1, 2014 at 11:20 PM


Visibility: 10 mi

Pressure: 30.12 "Hg

Humidity: 94%

Dew point: 57 °F

Location of EmsdettenLocation

Historic Weather in Emsdetten — Graph

°F

Emsdetten temperature yesterday

Maximum temperature yesterday: 66 °F (at 1:20 PM)
Minimum temperature yesterday: 50 °F (at 12:50 AM)
Average temperature yesterday: 58 °F

Past Weeks' High & Low Weather Summary

 TemperatureHumidityPressure
High75 °F (Aug 28, 3:20 PM)100% (Aug 17, 10:20 PM)30.12 "Hg (Aug 17, 10:20 PM)
Low41 °F (Aug 25, 3:50 AM)40% (Aug 27, 6:20 PM)29.62 "Hg (Aug 18, 4:20 AM)
Average57 °F83%29.92 "Hg
* Reported Aug 17 10:20 PM — Sep 1 10:20 PM, Emsdetten, Weather by CustomWeather, © 2014

Note: Actual official high and low records may vary slightly from our data, if they occured in-between our weather recording intervals... More about our weather records

Advertising

Emsdetten weather history for previous 24 hours

 ConditionsComfort  
Time TempWeatherWind HumidityBarometerVisibility
10:20 PM
Sep 1
61 °FPartly cloudy.2 mph88%30.12 "HgN/A
9:50 PM61 °FPassing clouds.1 mph88%30.12 "HgN/A
9:20 PM61 °FPassing clouds.2 mph88%30.12 "HgN/A
8:50 PM63 °FBroken clouds.2 mph83%30.12 "HgN/A
8:20 PM63 °FBroken clouds.2 mph77%30.12 "HgN/A
7:50 PM63 °FPartly sunny.2 mph77%30.09 "HgN/A
7:20 PM64 °FBroken clouds.3 mph73%30.09 "HgN/A
6:50 PM64 °FPartly sunny.5 mph73%30.09 "HgN/A
6:20 PM66 °FPartly sunny.6 mph68%30.09 "HgN/A
5:50 PM66 °FPartly sunny.5 mph68%30.09 "HgN/A
5:20 PM64 °FPartly sunny.3 mph73%30.09 "HgN/A
4:50 PM64 °FBroken clouds.7 mph73%30.09 "HgN/A
4:20 PM66 °FBroken clouds.8 mph64%30.09 "HgN/A
3:50 PM66 °FBroken clouds.9 mph64%30.09 "HgN/A
3:20 PM66 °FBroken clouds.10 mph68%30.09 "HgN/A
2:50 PM66 °FBroken clouds.12 mph64%30.12 "HgN/A
2:20 PM66 °FPartly sunny.9 mph60%30.12 "HgN/A
1:50 PM66 °FScattered clouds.9 mph64%30.12 "HgN/A
1:20 PM66 °FScattered clouds.13 mph64%30.12 "HgN/A
12:50 PM64 °FScattered clouds.12 mph73%30.12 "HgN/A
12:20 PM63 °FScattered clouds.10 mph77%30.12 "HgN/A
11:50 AM63 °FScattered clouds.8 mph77%30.12 "HgN/A
11:20 AM61 °FScattered clouds.8 mph83%30.12 "HgN/A
10:50 AM61 °FScattered clouds.7 mph83%30.12 "HgN/A
10:20 AM59 °FScattered clouds.9 mph88%30.09 "HgN/A
9:50 AM59 °FPassing clouds.7 mph94%30.09 "HgN/A
9:20 AM57 °FScattered clouds.6 mph94%30.09 "HgN/A
8:50 AM55 °FScattered clouds.6 mph100%30.09 "Hg6 mi
8:20 AM54 °FFog.3 mph100%30.09 "Hg3 mi
7:50 AM52 °FFog.2 mph100%30.09 "Hg3 mi
7:20 AM52 °FFog.5 mph100%30.07 "Hg2 mi
6:50 AM52 °FFog.5 mph100%30.07 "Hg1 mi
6:20 AM52 °FCool.3 mph100%30.07 "Hg1 mi
5:50 AM50 °FCool.3 mph100%30.07 "Hg1 mi
5:20 AM50 °FCool.3 mph100%30.07 "Hg1 mi
4:50 AM50 °FCool.3 mph100%30.07 "Hg2 mi
4:20 AM50 °FCool.3 mph100%30.07 "Hg2 mi
3:50 AM50 °FCool.3 mph100%30.04 "Hg4 mi
3:20 AM50 °FCool.3 mph100%30.04 "Hg5 mi
2:50 AM50 °FCool.3 mph100%30.04 "Hg6 mi
2:20 AM50 °FCool.2 mph100%30.04 "Hg6 mi
1:50 AM50 °FCool.3 mph100%30.04 "HgN/A
1:20 AM52 °FFog.5 mph100%30.04 "HgN/A
12:50 AM50 °FClear.3 mph100%30.04 "Hg10 mi
12:20 AM52 °FClear.3 mph100%30.04 "Hg10 mi
Weather by CustomWeather, © 2014

See weather overviewHow to use our weather pages